Regional Weather Roundup
Issued by NWS

Home | Current Version | Previous Version | Graphics & Text | Print | Product List | Glossary On
Versions: 1 2 3 4 5 6 7 8 9 10 11 12 13 14 15 16 17 18 19 20 21 22 23 24 25 26 27 28 29 30 31 32 33 34 35 36 37 38 39 40 41 42 43 44 45 46 47 48 49 50
000
ASUS43 KIND 160609
RWRIN

WEATHER ROUNDUP FOR INDIANA
NATIONAL WEATHER SERVICE INDIANAPOLIS IN
200 AM EDT TUE SEP 16 2014

NOTE: "FAIR" INDICATES FEW OR NO CLOUDS BELOW 12,000 FEET WITH NO
SIGNIFICANT WEATHER AND/OR OBSTRUCTIONS TO VISIBILITY.

* - STATION DOES NOT REPORT WEATHER SUCH AS PRECIPITATION OR FOG.

+ - STATION NOT QUALITY CONTROLLED BY THE NATIONAL WEATHER SERVICE.
    USE DATA WITH CAUTION...ESPECIALLY DEWPOINT AND RELATIVE
    HUMIDITY OBSERVATIONS.

INZ001>003-010>013-019-020-160700-
NORTHWEST INDIANA

CITY           SKY/WX    TMP DP  RH WIND       PRES   REMARKS
GARY /AIRPORT/ PTCLDY    56  51  85 NW8       30.17R
KNOX *+        CLOUDY    54  52  94 CALM      30.14S
LA PORTE +     CLOUDY    54  54 100 N3        30.16R
6HR MIN TEMP:  53; 6HR MAX TEMP:  55;

MICHIGAN CITY+ CLOUDY    54  54 100 CALM      30.15S
MONTICELLO +   CLOUDY    53  53  99 CALM      30.14S FOG
RENSSELAER +   CLOUDY    54  54 100 NW3       30.15S FOG
VALPARAISO     CLOUDY    55  52  89 N6        30.15S
6HR MIN TEMP:  54; 6HR MAX TEMP:  55; 6HR PCP: TRACE;


$$

LMZ046-743>745-160700-
SOUTHERN LAKE MICHIGAN

STATION/POSITION TIME  TEMP WIND        PRES
                       AIR  DIR/SP/G
                 (UTC) (F)  (DEG/KT/KT) (MB)
MICHIGAN CITY    0600   58  330/ 18/ 21   N/A

$$

INZ004-005-014>016-021>024-160700-
NORTH CENTRAL INDIANA

CITY           SKY/WX    TMP DP  RH WIND       PRES   REMARKS
GOSHEN         CLOUDY    55  52  89 N5        30.13S FOG
6HR MIN TEMP:  50; 6HR MAX TEMP:  56; 6HR PCP:  0.07;

LOGANSPORT +   CLOUDY    50  50 100 CALM      30.14S FOG
PERU/GRISSOM   FOG       53  53 100 NW3       30.13S VSB 1/4
6HR MIN TEMP:  53; 6HR MAX TEMP:  56; 6HR PCP:  0.10;

ROCHESTER +    CLOUDY    54  54 100 CALM      30.14S FOG
SOUTH BEND     MOCLDY    52  50  93 N6        30.15S FOG
6HR MIN TEMP:  51; 6HR MAX TEMP:  55;

WARSAW +       CLOUDY    50  50 100 CALM      30.14S FOG

$$

INZ006>009-017-018-025>027-160700-
NORTHEAST INDIANA

CITY           SKY/WX    TMP DP  RH WIND       PRES   REMARKS
ANGOLA *+      CLOUDY    54  43  66 W3        30.13R
AUBURN +       PTCLDY    52  50  93 CALM      30.14R FOG
FORT WAYNE     CLOUDY    53  52  96 NW3       30.14R FOG
6HR MIN TEMP:  49; 6HR MAX TEMP:  55; 6HR PCP:  0.07;

HUNTINGTON +   FOG       51  51 100 CALM      30.13R VSB 1/2
6HR MIN TEMP:  50; 6HR MAX TEMP:  55; 6HR PCP:  0.06;


$$

INZ028-029-035-036-043>045-051>053-160700-
WEST CENTRAL INDIANA

CITY           SKY/WX    TMP DP  RH WIND       PRES   REMARKS
GREENCASTLE +  CLOUDY    55  54  94 N6        30.12S FOG
LAFAYETTE      CLOUDY    54  53  97 N8        30.14S
6HR MIN TEMP:  54; 6HR MAX TEMP:  56; 6HR PCP:  0.02;

TERRE HAUTE    CLOUDY    57  55  93 N7        30.12S
6HR MIN TEMP:  57; 6HR MAX TEMP:  58; 6HR PCP:  0.02;


$$

INZ030>032-037>040-046>048-054>057-064-065-160700-
CENTRAL INDIANA

CITY           SKY/WX    TMP DP  RH WIND       PRES   REMARKS
CP ATTERBURY + CLOUDY    57  55  94 N5        30.11S FOG
FRANKFORT +    CLOUDY   N/A N/A N/A N6        30.14S HAZE
INDIANAPOLIS   CLOUDY    56  55  97 N6        30.11S
6HR MIN TEMP:  56; 6HR MAX TEMP:  57; 6HR PCP:  0.10;

-EAGLE CREEK   CLOUDY    57  54  89 MISG      30.11F
6HR MIN TEMP:  56; 6HR MAX TEMP:  58; 6HR PCP:  0.03;

KOKOMO *+      CLOUDY    54  52  94 N6        30.13S
MARION +       CLOUDY    54  53  95 CALM      30.14R
MT COMFORT *+  CLOUDY    55 N/A N/A NE3       30.12S
SHELBYVILLE    CLOUDY    58  55  90 N5        30.11S FOG
6HR MIN TEMP:  58; 6HR MAX TEMP:  60; 6HR PCP:  0.13;

ZIONSVILLE +   CLOUDY    56  53  91 N5        30.13S FOG
6HR MIN TEMP:  56; 6HR MAX TEMP:  57; 6HR PCP:  0.04;


$$

INZ033-034-041-042-049-050-058-059-160700-
EAST CENTRAL INDIANA

CITY           SKY/WX    TMP DP  RH WIND       PRES   REMARKS
MUNCIE         CLOUDY    56  54  93 N5        30.12S FOG
6HR MIN TEMP:  56; 6HR MAX TEMP:  58; 6HR PCP:  0.05;


$$

INZ060-061-067>069-081>083-085>088-160700-
SOUTHWEST INDIANA

CITY           SKY/WX    TMP DP  RH WIND       PRES   REMARKS
EVANSVILLE     CLOUDY    65  62  90 NW9       30.09S
6HR MIN TEMP:  65; 6HR MAX TEMP:  73; 6HR PCP: TRACE;

WASHINGTON +   CLOUDY    59  59 100 N6        30.10R FOG
6HR MIN TEMP:  59; 6HR MAX TEMP:  62; 6HR PCP:  0.08;


$$

INZ062-063-066-070>080-084-089>092-160700-
SOUTH CENTRAL AND SOUTHEAST INDIANA

CITY           SKY/WX    TMP DP  RH WIND       PRES   REMARKS
BEDFORD +      CLOUDY    59  55  88 N5        30.10  FOG
BLOOMINGTON    CLOUDY    58  56  93 N7        30.10S FOG
6HR MIN TEMP:  58; 6HR MAX TEMP:  59; 6HR PCP:  0.02;

NORTH VERNON + CLOUDY    59  59 100 N3        30.10  FOG

$$



USA.gov is the U.S. government's official web portal to all federal, state and local government web resources and services.